Regional Weather Roundup
Issued by NWS State College, PA

Home | Current Version | Previous Version | Graphics & Text | Print | Product List | Glossary On
Versions: 1 2 3 4 5 6 7 8 9 10 11 12 13 14 15 16 17 18 19 20 21 22 23 24 25 26 27 28 29 30 31 32 33 34 35 36 37 38 39 40 41 42 43 44 45 46 47 48 49 50
000
ASUS41 KCTP 021210
RWRCTP

REGIONAL WEATHER ROUNDUP
NATIONAL WEATHER SERVICE STATE COLLEGE PA
800 AM EDT TUE SEP 02 2014

Note: "fair" indicates few or no clouds below 12,000 feet with no
significant weather and/or obstructions to visibility.

* = STATION THAT DOES NOT REPORT PRECIPITATION /E.G. RAIN...SNOW...ETC/
    THUNDER OR FOG.

PAZ002>004-007>009-013>016-020>023-029>032-021300-
WESTERN PENNSYLVANIA

CITY           SKY/WX    TMP DP  RH WIND       PRES   REMARKS
ERIE           PTSUNNY   73  68  84 SW7       29.91R
MEADVILLE      CLOUDY    70  68  93 SW10      29.97R FOG
FRANKLIN*      PTSUNNY   70  66  88 SW6       29.99S
NEW CASTLE     FAIR      71  70  97 CALM      29.99R
BEAVER COUNTY  MOSUNNY   70  68  94 CALM      29.99S
BUTLER*        MOSUNNY   72  66  83 SW8       30.00F
PITTSBURGH INT PTSUNNY   72  69  90 SW7       29.99S
PITTSBURGH     CLOUDY    72  68  87 S5        30.00S
INDIANA*       CLOUDY    72  70  94 W8        30.04S
LATROBE        PTSUNNY   72  72 100 SW7       30.02S
WASHINGTON CO* PTSUNNY   72  70  94 SW3       30.02R
$$

PAZ004>006-010>012-017>019-024>028-033>037-041-042-045-046-049>053-021300-
CENTRAL PENNSYLVANIA

CITY           SKY/WX    TMP DP  RH WIND       PRES   REMARKS
BRADFORD       CLOUDY    70  67  90 W6        29.98S
DUBOIS         CLOUDY    70  69  97 SW9       29.99S
CLEARFIELD     CLOUDY    70  69  97 S7        29.99S
JOHNSTOWN      CLOUDY    70  66  87 W12       30.03F
ALTOONA        MOSUNNY   74  68  81 SW9       30.01S
STATE COLLEGE  MOSUNNY   72  68  88 SW3       29.98S
WILLIAMSPORT   FOG       70  68  93 E5        29.94R VSB<1/4
SELINSGROVE    SUNNY     72  70  93 CALM      29.96S FOG
FT INDIANTOWN  FOG       70  70 100 CALM      29.97R VSB 1
CAPITAL CITY   SUNNY     74  69  85 W3        29.95S
HARRISBURG     MOSUNNY   76  71  85 CALM      29.95R
YORK           SUNNY     74  69  85 E5        29.97R
$$

PAZ038>040-043-044-047-048-054-055-060>062-067>071-021300-
EASTERN PENNSYLVANIA

CITY           SKY/WX    TMP DP  RH WIND       PRES   REMARKS
SCRANTON       MOSUNNY   73  69  87 SW5       29.97R
MOUNT POCONO   MOSUNNY   71  67  87 W10       30.01R
ALLENTOWN      SUNNY     73  70  90 CALM      29.96R FOG
QUAKERTOWN*    SUNNY     72  72 100 CALM      29.97R
READING        SUNNY     74  71  91 CALM      29.95R
LANCASTER      SUNNY     72  71  97 CALM      29.97R
COATESVILLE    SUNNY     73  73 100 SW3       29.99R
POTTSTOWN      SUNNY     73  71  93 SW3       29.98R
BLUE BELL      SUNNY     77  72  83 CALM      29.95R
DOYLESTOWN     SUNNY     73  72  96 SW5       29.95R
WILLOW GROVE   NOT AVBL
NORTH PHILA    SUNNY     79  70  74 W7        29.96R
PHILADELPHIA   MOSUNNY   77  72  84 SW9       29.96R
$$


USA.gov is the U.S. government's official web portal to all federal, state and local government web resources and services.